This demonstration page uses our WeatherBlox Daily Observations layout. Learn more.

39.92423, -83.80882

Hourly Observations for June 1, 2019

Temp ( °F °C ) Dew Point ( °F °C ) Humidity (%) Winds ( mph kmh ) Pressure ( in mb ) Visibility ( mi km ) Precip ( " mm )
12:56 am 00:56 Clear 61 16.1 61 16.1 100 100 SW 5 7 29.89 1012 10 16.0934 0 0
1:56 am 01:56 Clear 61 16.1 61 16.1 100 100 Calm 29.9 1013 9 14.48406 0 0
2:56 am 02:56 Clear with Mist and Fog 60 15.6 60 15.6 100 100 SSW 3 6 29.9 1013 6 9.65604 0 0
3:56 am 03:56 Clear with Mist and Fog 60 15.6 60 15.6 100 100 SW 3 6 29.9 1013 4 6.43736 0 0
4:56 am 04:56 Clear with Mist and Fog 59 15 59 15 100 100 SW 5 7 29.9 1013 6 9.65604 0 0
5:56 am 05:56 Clear with Mist and Fog 58 14.4 58 14.4 100 100 Calm 29.91 1013 3 4.82802 0 0
6:03 am 06:03 Clear with Mist and Fog 57 14 57 14 100 100 Calm 29.92 1013 2 3.21868 0 0
6:15 am 06:15 Sunny with Mist and Fog 59 15 59 15 100 100 Calm 29.91 1013 1.5 2.41401 0 0
6:25 am 06:25 Sunny with Fog 57 14 57 14 100 100 Calm 29.91 1013 0.5 0.80467 0 0
6:33 am 06:33 Sunny with Fog 55 13 55 13 100 100 Calm 29.91 1013 0.25 0.402335 0 0
6:42 am 06:42 Mostly Cloudy with Fog 55 13 55 13 100 100 Calm 29.91 1013 0.25 0.402335 0 0
6:56 am 06:56 Mostly Cloudy with Fog 57 13.9 57 13.9 100 100 Calm 29.91 1013 0.25 0.402335 0 0
7:05 am 07:05 Mostly Cloudy with Mist and Fog 57 14 57 14 100 100 Calm 29.91 1013 0.75 1.207005 0 0
7:07 am 07:07 Partly Cloudy with Mist and Fog 57 14 57 14 100 100 Calm 29.91 1013 1.25 2.011675 0 0
7:09 am 07:09 Mostly Cloudy with Mist and Fog 57 14 57 14 100 100 SW 3 6 29.91 1013 0.75 1.207005 0 0
7:18 am 07:18 Sunny with Mist and Fog 59 15 59 15 100 100 SW 3 6 29.9 1013 1.25 2.011675 0 0
7:32 am 07:32 Sunny with Mist and Fog 61 16 61 16 100 100 WSW 3 6 29.9 1012 2 3.21868 0 0
7:56 am 07:56 Sunny with Mist and Fog 61 16.1 61 16.1 100 100 Calm 29.91 1013 4 6.43736 0 0
8:56 am 08:56 Sunny 65 18.3 65 18.3 100 100 SW 6 9 29.91 1013 8 12.87472 0 0
9:56 am 09:56 Sunny 70 21.1 65 18.3 84 84 WSW 6 9 29.92 1013 10 16.0934 0 0
10:56 am 10:56 Sunny 74 23.3 66 18.9 76 76 WSW 10 17 29.9 1013 10 16.0934 0 0
11:56 am 11:56 Sunny 76 24.4 65 18.3 69 69 WSW 13 20 29.89 1012 10 16.0934 0 0
12:56 pm 12:56 Sunny 78 25.6 65 18.3 64 64 SW 12 19 29.87 1012 10 16.0934 0 0
1:56 pm 13:56 Mostly Cloudy 79 26.1 65 18.3 62 62 SW 13 20 29.86 1011 10 16.0934 0 0
2:56 pm 14:56 Sunny 79 26.1 67 19.4 67 67 W 13 20 29.84 1010 10 16.0934 0 0
3:56 pm 15:56 Sunny 79 26.1 65 18.3 62 62 WSW 15 24 29.83 1010 10 16.0934 0 0
5:56 pm 17:56 Partly Cloudy 79 26.1 65 18.3 62 62 WSW 15 24 29.81 1010 10 16.0934 0 0
6:56 pm 18:56 Sunny 78 25.6 64 17.8 62 62 WSW 14 22 29.8 1009 10 16.0934 0 0
7:56 pm 19:56 Sunny 76 24.4 63 17.2 64 64 SW 13 20 29.79 1009 10 16.0934 0 0
8:56 pm 20:56 Sunny 73 22.8 63 17.2 71 71 SSW 7 11 29.79 1009 10 16.0934 0 0
9:56 pm 21:56 Clear 71 21.7 62 16.7 73 73 SSW 5 7 29.79 1009 10 16.0934 0 0
10:56 pm 22:56 Clear 70 21.1 62 16.7 76 76 SSW 8 13 29.78 1009 10 16.0934 0 0
11:56 pm 23:56 Clear 69 20.6 62 16.7 78 78 SSW 7 11 29.78 1008 10 16.0934 0 0

Powered by AerisWeather